FENGYUN 1C DEB

Satellite information

Favourite Embed

Satellite Type and Status

DEBRISIN ORBIT

Key statistics

Satellite FENGYUN 1C DEB at a glance.

Uptime

9555

Days in orbit

Revolutions

≈ 14.6

Per day

Orbit

SSO

Sun Synchronous Orbit

Inclination

98.1

Latest

Satellite identification and parameters

Extended collection of information and parameters for FENGYUN 1C DEB.

Object identification

Identified? True

Debris? True

Object name: FENGYUN 1C DEB

International designator: 1999-025DQS

Object number (NORAD): 35234

Object ID (CCSDS): 35234

Country: PEOPLES REPUBLIC OF CHINA (PRC)

Current information (Y/N): Y

RCS size: SMALL

Orbital parameters

Period: 98.376 minutes

Inclination: 98.0825 deg

SMA: 7059.15 km

Apoapsis: 754.984 km

Periapsis: 607.047 km

RAAN: 218.3731 deg

Eccentricy: 0.0104784

Argument of periapsis: 45.5348 deg

Mean anomaly: 315.4364 deg

Mean motion: 14.63774359 rev/day

Mean motion (dot): 0.00004602 rev/day2

B* drag term: 0.00082375 1/REarth

Two-line elements (TLE)

Creation date: July 6, 2025, 6:05 p.m.

Reference frame: TEME

Reference center: EARTH

Epoch: July 6, 2025, 12:29 p.m. UTC

TLE line 0: 0 FENGYUN 1C DEB

TLE line 1: 1 35234U 99025DQS 25187.52082315 .00004602 00000-0 82375-3 0 9991

TLE line 2: 2 35234 98.0825 218.3731 0104784 45.5348 315.4364 14.63774359920252

Live tracking on map

Real-time ground track for satellite FENGYUN 1C DEB.

In-orbit conjunctions

A list of the most updated potential collisions computed for object FENGYUN 1C DEB.

Target Orbit TCA Probability of collision Miss distance Type
THOR ABLESTAR DEB LEO 2025-06-02 22:39:29 0.0001158915 126.0 (m) DEBRIS
H-2A DEB SSO 2024-11-08 14:26:28 0.0002075098 234.0 (m) DEBRIS
FENGYUN 1C DEB SSO 2024-09-28 19:41:30 0.0001544975 713.0 (m) DEBRIS
SL-8 R/B LEO 2024-07-06 02:46:21 0.0001843713 942.0 (m) ROCKET BODY

Associated space launch

Chinese polar orbiting meteorological satellite

FENGYUN 1C DEB was lifted into orbit during the mission ‘Long March 4B | Feng Yun 1C’, on board a Long March 4B space rocket.

The launch took place on May 10, 1999, 1:33 a.m. from Launch Complex 7.

For more information about the launch, click the button.

Launch to space Long March 4B | Feng Yun 1C
Long March 4B | Feng Yun 1C

Agency: N/A

Status: Launch Successful

Launch date: May 10, 1999, 1:33 a.m. UTC

Rocket: Long March 4B

Launch pad: Launch Complex 7

Location: Taiyuan Satellite Launch Center, People's Republic of China

...

Latest news about this satellite

There are no fresh news available about this satellite. Check back as we update our databases every day.


Newsletter sign-up

Weekly statistics, charts and insights to help you stay on top of the space industry.